RH
51 61 57 49 49 55 52 43 38 38 37 36 36 36 35 35 36 36 35 35 35 35 37 41 48 54 59 63 65 68 76 83 84 81 82 89 97 95 83 82 85 77 74 65 45 46 50 52 72 87 87 81 59 39 42 67 89 89 84 87 96 102 102 99 100 102 100 100 101 100 101 101 100 89 79 78 60 37 36 36 28 23 24 25 26
50 57 58 50 49 52 48 44 43 44 42 40 39 38 37 39 41 42 41 40 39 37 37 41 44 48 52 55 58 63 73 85 94 95 88 82 84 88 88 88 84 74 71 61 43 46 52 47 60 81 91 96 87 60 38 43 71 89 87 83 89 96 102 102 99 100 100 99 100 100 100 101 100 89 82 78 56 37 38 37 29 24 25 26 26
69 64 67 56 48 48 47 49 50 47 43 39 37 35 35 36 37 38 40 41 40 36 36 39 42 46 49 53 59 67 76 83 87 91 87 79 79 84 92 96 87 75 64 52 43 46 48 41 50 73 84 90 99 94 69 45 46 72 91 90 88 92 96 100 101 100 100 103 103 101 100 99 98 91 86 79 53 37 39 36 29 25 25 26 27
90 81 82 67 55 59 59 56 52 44 38 35 33 32 31 28 25 25 29 34 34 31 33 38 43 47 54 63 71 77 82 84 85 87 87 86 90 96 103 101 85 64 49 44 42 42 43 39 42 61 74 73 75 82 85 74 52 49 75 94 96 95 96 97 100 101 99 103 107 103 101 98 95 93 90 80 53 38 40 36 29 26 25 26 27
98 97 95 80 76 81 74 61 49 39 35 33 32 31 28 23 19 19 20 24 26 28 31 36 42 50 62 76 83 85 86 86 90 93 96 99 101 105 103 88 66 46 37 41 45 40 38 42 46 53 64 70 67 60 59 72 70 49 51 79 97 97 98 98 96 100 100 99 104 105 104 100 94 95 96 80 53 39 39 36 30 26 25 26 27
99 102 99 91 93 97 86 68 50 38 36 34 32 30 25 21 18 19 19 20 22 25 29 32 39 48 61 75 82 88 95 98 101 101 102 100 92 82 68 53 40 35 47 67 76 67 50 48 59 66 79 91 91 87 74 68 78 66 43 53 83 96 95 98 96 97 101 101 103 107 108 104 98 102 105 83 53 40 37 34 31 27 25 26 26
99 100 101 99 100 102 94 75 53 40 37 34 30 27 23 20 18 18 19 20 22 23 26 30 38 48 58 69 75 82 93 95 88 81 74 64 53 44 36 34 34 44 75 97 98 95 82 73 77 79 91 100 93 98 100 91 95 93 69 47 59 86 94 94 96 94 97 103 108 110 107 102 100 105 107 85 54 40 36 33 31 29 27 27 26
99 100 101 101 101 102 96 80 60 44 38 33 29 27 23 22 20 19 19 19 21 23 26 32 40 47 53 59 63 66 67 61 50 42 37 32 29 29 30 34 38 49 81 101 96 100 103 99 96 86 88 103 99 94 98 102 104 97 92 72 49 66 88 89 91 91 91 100 109 108 100 92 92 102 107 87 57 40 36 34 31 31 30 29 28
99 100 100 101 101 101 97 85 66 49 42 35 30 28 27 26 23 20 19 18 20 21 25 33 40 43 43 43 43 43 40 34 30 28 27 27 27 29 29 33 36 41 69 99 101 99 101 101 103 95 90 100 101 97 93 99 104 91 94 95 60 50 74 85 87 90 87 93 105 101 88 79 82 100 109 90 60 41 37 33 31 32 31 32 31
98 97 97 101 101 100 98 91 72 56 50 42 35 31 30 31 28 25 21 19 19 20 24 30 36 37 35 34 32 31 29 27 27 26 26 27 27 28 27 28 31 35 53 83 97 101 103 101 101 97 94 98 97 98 98 96 101 97 98 104 81 56 62 77 84 91 91 91 99 96 81 70 74 97 110 95 64 41 38 34 30 33 32 34 34
99 95 96 101 101 99 98 95 84 71 61 50 42 35 33 34 33 30 24 21 20 22 27 32 35 35 31 29 27 27 27 27 26 26 26 27 28 28 27 25 27 33 42 54 69 87 99 100 102 101 98 99 98 98 99 99 100 100 100 102 99 82 67 74 87 95 99 96 97 94 81 69 69 90 107 99 70 42 39 36 30 34 35 36 37
98 95 98 101 100 99 99 98 94 87 74 59 48 39 34 34 34 33 28 23 21 23 30 36 37 34 29 27 26 27 28 28 28 29 29 30 31 30 29 29 28 34 44 47 53 72 91 97 95 98 101 99 95 95 98 101 100 100 103 99 100 101 89 90 99 102 104 104 102 97 84 70 64 83 104 103 76 45 39 38 31 35 38 38 40
97 96 101 101 99 100 101 100 97 95 84 66 52 41 35 34 35 35 31 24 22 25 31 34 34 30 27 25 25 28 30 31 32 32 32 32 34 37 36 35 34 37 48 54 56 66 85 99 97 89 89 90 89 90 94 100 99 95 101 103 99 96 94 98 102 102 103 103 106 104 89 71 61 77 104 107 81 49 40 41 34 35 40 42 44
98 99 101 100 99 100 101 100 98 97 89 72 57 45 38 36 36 35 32 26 22 25 30 31 29 26 26 27 28 30 32 33 33 32 32 31 32 39 41 39 37 41 51 65 76 77 74 81 98 100 89 89 96 93 90 97 97 86 84 98 101 88 84 96 101 100 102 99 102 106 95 73 58 71 100 107 85 54 41 44 40 38 42 45 49
99 101 100 100 100 100 100 100 99 98 90 75 61 52 44 39 38 35 32 26 22 26 29 29 27 25 27 31 34 36 35 32 30 29 29 30 30 33 37 37 36 39 45 58 75 86 79 63 71 93 99 96 95 92 94 98 94 77 66 82 100 92 83 94 102 100 102 100 99 105 100 75 56 63 88 101 88 59 43 45 47 44 45 48 52
100 100 100 100 100 101 100 99 100 98 90 76 63 55 48 42 39 36 30 25 23 26 28 27 26 26 29 35 38 39 38 34 30 28 27 28 29 30 32 32 33 36 38 41 47 59 75 70 55 66 93 102 95 89 91 94 91 73 58 71 98 100 88 92 102 101 102 102 99 103 103 78 53 55 76 93 90 65 45 43 49 52 52 54 57
100 99 101 100 99 101 100 100 100 96 90 77 63 56 50 44 39 33 27 23 23 25 27 26 25 27 31 37 39 38 38 38 35 32 29 29 30 30 32 32 32 32 34 38 38 37 50 67 64 60 78 95 98 97 90 86 85 72 64 78 99 100 86 84 95 100 99 99 99 102 104 83 54 48 65 86 91 71 49 43 47 54 57 58 61
98 100 100 99 100 101 99 100 99 94 90 75 62 57 50 43 37 29 25 23 24 26 26 26 26 28 32 35 37 38 39 40 40 38 33 30 29 30 31 33 33 32 33 36 39 39 36 43 54 59 75 91 95 99 97 87 74 70 81 91 100 101 85 74 83 94 99 100 99 102 105 90 59 47 58 78 90 76 54 44 44 51 58 60 64
93 100 98 98 100 99 99 99 96 93 85 70 60 56 48 41 33 25 24 23 24 26 26 26 27 29 32 35 36 38 39 40 40 40 37 33 29 29 30 31 34 33 34 36 38 41 38 35 38 43 63 83 87 92 99 94 74 71 86 87 92 102 91 80 78 81 95 103 101 100 106 98 68 50 55 71 85 78 59 47 43 46 53 59 62
90 99 99 100 99 97 98 95 93 89 77 65 61 56 47 38 28 23 24 23 25 27 27 28 29 30 32 35 37 37 39 39 39 40 39 38 33 30 29 28 32 34 35 38 40 42 42 40 37 43 61 68 73 88 99 102 86 73 83 89 94 100 94 93 88 74 82 100 104 100 103 103 82 59 57 69 79 76 64 53 46 45 48 56 60
102 105 100 97 94 94 94 91 91 86 74 67 64 55 43 32 24 24 24 25 28 28 28 28 29 33 35 38 39 38 38 38 39 39 39 39 37 34 33 29 28 30 32 38 44 47 47 43 35 47 74 78 80 96 101 103 97 84 89 99 101 100 97 103 104 87 79 91 104 103 100 103 95 76 64 69 80 81 72 61 52 48 46 51 56
84 86 85 87 88 93 95 93 93 87 77 71 62 48 36 27 25 26 26 29 31 29 29 29 30 35 39 42 43 41 41 39 38 39 38 36 35 34 35 35 32 31 30 33 41 47 46 43 37 42 68 88 96 102 100 100 102 97 98 100 99 101 101 101 104 100 89 87 98 103 101 102 103 93 79 74 81 87 83 71 59 53 50 51 54
56 64 79 88 92 97 98 95 92 84 75 65 51 38 30 27 27 28 30 31 31 30 29 29 31 36 41 45 47 45 44 43 41 40 39 37 35 34 35 36 35 35 33 31 37 46 45 40 39 41 53 75 91 97 101 101 101 102 101 100 100 100 100 100 99 102 99 91 91 97 101 103 103 103 97 89 88 92 91 81 70 62 59 57 57
60 75 92 98 99 100 98 93 85 75 66 53 41 33 30 29 30 30 31 31 29 29 29 30 33 37 42 45 47 46 44 44 44 42 40 38 37 36 37 36 35 36 36 34 34 43 49 44 43 49 54 64 80 94 103 103 99 101 101 99 102 101 99 101 99 100 104 98 91 93 98 100 100 101 103 101 100 101 100 97 91 81 73 70 70
77 91 98 100 101 100 97 89 78 69 59 46 36 33 31 31 32 31 31 31 30 29 30 32 35 38 43 45 46 45 44 45 44 42 40 39 38 37 37 36 34 36 36 36 35 38 47 51 55 73 84 82 89 99 104 103 99 100 101 99 101 101 99 101 98 98 103 102 96 93 90 91 97 100 99 101 103 102 103 105 106 99 91 89 91
77 90 98 100 100 98 93 82 75 69 55 41 35 34 34 33 34 33 33 32 31 31 32 34 37 40 42 43 44 43 44 46 44 41 40 39 39 40 40 36 31 34 37 36 36 38 45 58 70 90 104 101 99 102 103 103 101 99 100 100 99 100 101 102 100 97 99 101 100 96 85 80 90 97 97 99 101 101 101 102 106 105 102 101 101
79 89 99 101 98 93 85 76 72 63 48 40 38 36 36 36 36 36 34 33 32 32 34 37 39 40 40 40 42 44 45 44 41 40 40 41 42 43 42 39 32 31 36 35 37 39 44 63 84 96 103 102 99 100 102 102 102 100 100 101 100 100 102 101 101 99 99 100 101 101 94 85 86 96 100 99 99 101 101 100 101 103 103 102 101
94 98 100 99 96 85 77 73 66 54 45 43 41 39 40 40 39 37 34 33 33 34 36 38 38 38 38 39 41 43 42 40 40 40 42 43 44 43 39 38 37 36 37 34 35 40 42 60 91 104 101 101 100 99 101 101 100 101 101 101 101 101 103 103 102 102 101 100 99 101 103 97 94 98 101 99 99 101 102 101 100 100 101 101 101
100 101 99 96 89 80 76 72 60 50 47 45 43 42 42 41 39 36 34 34 33 34 35 35 36 36 37 38 39 40 39 39 41 42 44 44 41 39 35 33 36 40 42 37 33 38 41 52 85 107 103 100 101 99 100 101 100 101 100 100 101 100 99 100 102 102 100 100 100 100 101 101 101 101 99 100 101 100 100 103 102 100 100 100 101
101 100 97 92 84 79 75 67 57 52 48 45 43 42 39 37 37 36 36 35 34 34 35 35 36 37 37 38 38 39 40 42 44 43 42 40 36 33 32 33 35 40 44 41 35 38 41 47 72 101 105 99 101 101 100 101 100 101 100 99 101 100 95 95 99 99 99 101 102 101 100 99 102 104 102 102 102 99 99 103 104 102 100 98 99
96 94 91 88 83 77 70 64 58 51 45 41 39 37 35 36 38 39 38 36 34 35 36 36 37 37 37 37 37 39 41 41 41 40 36 34 33 32 33 34 37 41 44 42 37 37 42 45 60 91 106 101 99 102 102 102 100 100 101 100 100 101 99 99 100 99 100 102 101 101 100 99 100 103 103 102 102 101 100 101 103 104 103 100 98
79 80 83 85 84 76 68 64 57 48 41 38 36 34 35 38 41 42 39 36 35 36 36 36 36 37 36 36 37 38 39 38 36 35 34 34 34 35 37 39 40 43 45 43 38 36 39 44 52 78 103 105 100 101 102 102 101 100 100 101 99 100 101 101 100 100 100 100 101 102 101 100 98 99 102 101 101 102 101 99 101 102 105 105 99
76 79 84 86 84 76 67 61 54 46 40 38 37 35 37 40 41 41 40 38 36 36 36 36 36 36 36 36 38 37 35 35 34 34 35 36 38 39 41 43 43 46 46 43 39 35 37 41 47 66 94 105 102 101 101 100 101 101 99 100 100 99 101 101 99 101 101 99 100 102 101 97 90 92 100 101 100 102 100 99 100 100 103 108 103
88 88 88 85 81 72 63 57 51 45 42 39 38 36 36 38 39 41 43 40 36 35 35 35 34 34 36 37 37 36 34 34 35 36 37 38 39 41 41 42 43 45 46 44 40 36 35 37 41 54 79 100 103 101 103 100 99 101 100 100 100 100 100 100 100 101 100 99 100 100 100 99 93 91 98 101 99 101 101 100 100 100 101 105 106
85 85 82 78 74 66 58 54 49 46 43 39 36 35 36 37 39 44 45 41 37 36 34 34 33 33 36 37 36 34 34 35 35 37 38 39 39 40 41 42 43 44 45 44 41 39 36 35 37 42 61 89 103 102 103 103 100 100 101 100 100 100 100 100 100 101 99 99 101 101 101 102 100 97 99 100 100 100 101 101 100 100 100 101 103
71 76 74 72 69 61 56 53 49 45 41 37 35 35 35 38 43 46 46 43 39 36 35 34 33 35 37 37 35 35 34 35 37 38 38 39 40 40 42 43 44 45 45 45 43 42 40 37 36 36 44 68 93 102 103 104 102 100 100 101 100 99 101 101 100 100 100 100 101 102 101 101 100 98 99 101 100 99 100 101 100 100 100 100 101
53 62 66 69 65 58 54 51 46 43 39 36 36 36 37 41 46 48 48 46 41 37 36 35 35 37 37 36 36 36 35 36 37 39 39 39 39 41 44 46 48 48 47 47 47 46 46 42 39 36 35 45 70 93 102 102 102 101 100 100 100 100 101 101 101 100 100 100 101 102 102 99 98 98 99 100 100 100 100 101 102 101 99 100 101
35 41 47 53 54 51 48 45 42 40 37 36 36 37 40 44 49 53 53 48 43 40 39 37 37 38 37 37 37 36 37 39 40 39 38 39 40 42 45 45 46 46 46 46 46 47 48 46 42 39 36 35 45 70 93 102 101 100 101 101 99 100 102 101 101 100 99 100 101 102 102 100 99 99 100 100 100 101 100 99 100 101 100 101 101
28 29 30 34 39 41 42 41 40 38 36 35 37 39 41 44 53 60 58 50 45 43 41 39 39 39 38 38 38 38 40 42 42 40 39 40 43 45 46 45 43 42 41 41 41 42 43 44 43 41 38 36 35 46 70 94 102 99 98 101 101 100 101 102 102 100 99 100 100 102 102 101 100 100 100 101 100 100 101 100 99 100 101 101 100
28 28 29 33 40 43 44 42 39 37 35 37 41 42 42 49 61 66 61 53 47 43 42 41 40 39 39 40 39 40 43 44 42 41 41 44 47 47 46 44 43 42 41 40 39 39 38 38 39 40 38 37 35 35 46 70 94 100 94 95 101 102 100 101 103 101 99 99 100 101 102 101 100 100 101 101 100 100 100 100 101 101 100 100 100
32 36 41 47 51 50 47 42 38 34 36 42 45 45 48 60 71 71 63 55 48 43 43 42 40 39 40 40 40 43 46 45 43 42 44 48 49 48 46 45 44 43 42 42 41 39 39 37 35 36 37 36 35 34 34 44 70 93 96 89 91 101 103 101 100 101 100 100 100 100 101 101 100 99 100 102 101 101 101 100 100 101 100 100 99
47 52 56 58 57 52 46 41 36 33 38 46 47 49 61 73 77 71 63 53 45 43 44 42 41 41 42 42 44 48 49 46 44 44 47 51 51 48 46 45 45 45 44 44 43 41 39 37 35 34 34 34 34 33 33 34 44 68 89 89 82 88 100 103 100 97 96 98 100 100 100 100 100 99 100 102 102 101 101 101 100 100 101 101 99
63 66 66 64 60 54 48 42 37 36 41 47 50 60 75 82 77 68 58 49 43 44 45 43 41 42 44 46 49 51 50 47 45 47 50 52 51 48 47 48 47 46 44 42 41 40 38 36 35 34 32 32 33 32 32 33 33 42 64 81 80 76 83 96 103 101 96 94 96 99 101 100 100 100 100 100 101 101 100 101 101 99 97 98 99
74 74 73 72 67 60 54 49 43 42 47 53 62 76 86 84 74 62 51 46 46 46 45 44 44 46 47 50 52 53 50 47 47 49 52 52 49 48 49 49 46 43 41 40 38 36 34 32 30 30 30 29 31 32 32 32 33 33 40 59 73 73 70 78 92 102 103 99 95 95 100 101 100 101 101 100 100 101 101 100 100 99 95 92 94
78 80 82 80 74 67 62 56 50 51 59 70 83 92 91 80 67 56 49 47 48 47 47 48 48 49 50 53 55 53 50 48 49 51 52 51 49 50 50 47 43 41 40 38 35 32 30 29 27 25 25 25 25 28 30 30 32 32 32 38 53 66 68 66 73 87 99 105 101 96 96 100 100 100 101 101 100 101 102 100 99 101 101 97 94
87 89 88 82 76 71 66 60 59 68 80 92 99 96 85 72 61 52 49 49 48 49 51 51 50 51 55 58 58 55 52 51 52 52 52 51 51 52 50 45 42 40 37 33 31 31 29 28 28 27 25 25 23 22 24 27 29 31 32 32 36 47 60 64 64 68 79 93 103 101 98 99 101 101 101 101 101 101 101 99 94 93 99 101 100
94 94 89 83 78 72 66 66 75 88 97 100 99 90 77 65 55 50 49 50 50 52 53 52 52 57 61 62 59 57 56 55 54 52 51 51 52 52 49 43 39 35 33 31 30 30 30 29 29 30 28 28 27 24 22 22 23 26 29 31 31 34 43 54 60 63 65 74 88 100 103 102 101 102 101 100 100 100 101 100 94 90 94 100 101
99 97 91 84 77 72 74 82 92 99 100 97 91 80 68 57 51 50 51 51 52 55 55 55 58 63 65 63 61 61 60 57 55 52 51 52 53 51 46 40 35 32 30 31 31 30 32 32 31 31 31 30 30 29 27 24 22 22 23 26 30 31 32 38 48 58 63 65 70 83 98 105 105 104 103 103 102 101 101 101 98 96 97 100 103
95 93 89 86 84 85 90 96 99 100 97 90 81 69 58 52 50 51 51 52 56 59 59 59 63 66 66 63 62 62 60 56 54 52 53 54 51 47 42 36 32 31 30 31 32 32 33 33 32 31 30 30 30 30 30 29 27 25 22 21 23 27 31 32 35 42 52 60 65 70 82 96 104 105 106 106 105 104 103 102 100 100 99 100 104
93 94 94 94 95 96 99 100 100 96 88 78 69 59 53 51 52 53 55 58 62 63 61 64 67 67 63 60 59 59 56 54 54 56 57 55 48 43 39 34 30 30 31 32 32 33 33 31 30 29 27 26 27 26 27 29 29 29 28 25 22 21 25 28 31 33 37 45 55 62 70 81 91 99 103 106 105 104 104 103 102 101 100 98 98
99 99 99 100 100 101 100 95 88 80 72 66 59 54 51 53 55 57 61 64 64 63 64 68 68 64 60 58 58 57 55 54 58 61 59 52 46 40 35 32 31 32 33 34 32 30 28 26 24 24 23 22 23 23 22 23 25 26 28 28 28 25 22 23 26 30 32 35 39 46 56 65 75 86 95 101 104 103 103 103 103 103 101 99 96
Wind_Speed
21 20 19 20 21 22 23 24 26 28 30 32 35 37 39 40 41 42 42 42 41 40 39 38 38 39 40 40 41 41 41 41 41 41 41 40 42 43 42 43 43 43 45 46 41 34 32 33 29 26 26 27 28 28 27 28 28 27 26 25 24 23 22 22 23 24 24 24 24 24 24 22 23 23 20 18 18 18 18 19 18 17 17 17 19
21 19 18 20 21 21 23 25 26 28 30 33 36 38 40 42 42 43 43 44 43 42 41 40 39 39 40 40 40 40 40 40 40 41 41 41 41 42 43 44 44 45 47 46 39 33 32 32 31 29 28 27 27 29 28 28 30 29 27 26 26 25 23 23 23 25 26 25 24 23 23 23 24 24 21 18 18 18 18 18 18 16 15 16 17
20 17 18 20 20 22 23 25 26 28 32 35 37 40 41 43 43 44 44 44 44 43 42 40 40 39 39 39 39 39 39 39 39 40 41 41 41 42 44 44 46 48 49 45 38 34 33 32 31 31 30 29 27 28 29 29 30 31 30 28 27 26 25 24 24 25 26 26 25 24 23 23 25 25 21 18 19 18 17 17 17 15 14 15 16
18 17 18 20 20 22 24 25 27 29 33 36 39 41 43 44 45 45 45 44 44 42 41 40 39 38 38 38 38 39 39 40 41 41 42 42 43 44 45 47 49 49 46 39 35 34 33 30 29 30 30 30 28 28 30 31 30 31 33 31 28 27 26 25 24 24 25 27 26 25 25 25 26 25 21 19 19 18 17 17 16 14 13 14 15
18 19 20 20 21 23 24 25 28 31 35 38 41 42 44 46 46 46 45 44 43 41 40 39 38 37 37 38 39 40 41 42 43 43 44 45 46 47 48 49 48 45 40 35 32 31 30 27 26 25 25 28 29 29 30 31 31 31 33 34 31 28 27 26 25 24 24 26 27 26 26 26 26 25 21 20 20 18 17 16 16 14 12 12 13
21 22 23 22 23 25 25 26 29 32 36 39 41 43 45 47 48 48 46 45 43 42 40 38 37 37 37 38 41 43 44 45 46 47 48 49 51 51 49 46 41 35 31 30 30 28 26 25 23 21 21 24 25 27 30 30 31 31 31 34 34 31 28 27 27 26 24 24 25 26 26 26 25 24 21 21 20 19 17 16 15 13 11 11 12
24 25 26 25 26 28 29 29 30 33 36 39 41 43 46 49 49 49 48 46 45 43 42 40 39 39 40 41 43 45 46 48 49 50 51 51 50 47 44 39 32 29 27 30 30 26 25 25 23 21 22 22 20 22 26 28 30 31 31 32 35 35 31 28 27 27 26 24 24 24 25 25 23 22 22 22 21 19 17 15 14 13 11 10 11
25 27 29 27 28 30 31 31 32 34 36 39 40 42 46 49 50 50 49 48 46 46 44 43 42 42 43 45 46 47 49 49 49 48 47 45 43 40 37 31 28 31 32 32 32 29 26 26 25 25 23 23 22 22 23 25 29 31 32 31 33 36 35 31 28 28 27 25 25 24 24 24 23 22 22 23 22 20 17 16 14 12 10 10 10
25 29 31 29 30 32 33 33 33 35 37 39 41 42 45 49 52 52 52 50 49 48 47 45 45 45 45 46 47 47 47 47 45 44 42 40 38 35 33 29 29 33 32 30 32 32 29 28 28 26 24 25 26 25 23 25 27 30 31 31 31 33 36 34 30 28 27 27 25 25 24 24 23 22 23 24 23 20 18 16 15 12 11 10 10
27 30 31 30 31 33 35 35 35 36 38 40 41 42 44 49 53 54 54 53 51 49 47 46 45 44 44 44 45 45 45 43 42 40 39 37 36 33 31 29 29 33 32 30 31 31 30 30 30 28 27 28 28 27 25 24 26 27 28 30 29 30 34 35 32 29 28 27 27 25 24 24 23 22 23 25 24 21 19 17 15 13 11 10 10
28 30 31 32 34 36 36 36 37 38 40 42 43 44 45 49 54 56 55 54 51 49 47 45 44 43 44 44 44 43 43 42 41 40 38 37 36 34 32 30 29 31 32 32 31 31 31 32 32 31 30 30 29 28 28 26 27 28 27 29 28 27 30 32 33 32 30 28 28 26 25 25 24 23 24 25 25 23 20 18 17 14 12 11 10
28 31 33 36 37 37 37 39 41 42 43 44 46 47 47 50 55 58 56 55 52 48 46 44 44 44 45 45 43 43 43 42 41 39 38 37 36 35 33 32 30 30 31 31 32 32 33 34 35 34 32 32 31 30 30 30 30 30 29 29 28 26 27 28 30 32 32 30 29 28 27 25 25 24 25 27 26 24 21 19 18 15 13 12 11
29 33 37 39 39 40 41 43 45 45 46 46 48 49 49 51 56 60 59 56 52 48 45 43 44 46 46 45 43 42 41 40 39 38 37 36 35 34 33 32 31 31 31 31 32 33 35 36 36 36 34 33 32 31 32 32 32 31 29 30 30 29 28 27 29 32 32 31 30 29 28 27 26 25 26 28 27 26 23 21 19 17 15 13 12
31 36 39 41 42 43 44 46 48 49 49 48 49 51 51 54 58 62 61 58 53 48 44 43 44 45 46 46 44 42 40 38 36 36 36 36 35 34 33 32 31 31 32 32 32 33 35 37 38 38 36 35 34 34 34 34 34 33 30 29 30 29 29 29 30 32 32 32 31 30 29 28 26 26 27 29 29 28 26 23 21 19 17 16 14
33 38 41 42 44 46 47 49 51 52 51 50 51 52 53 56 61 63 63 58 53 48 44 43 44 44 44 44 43 42 41 39 35 33 34 35 35 34 34 33 32 32 33 33 33 34 35 36 38 39 39 39 38 37 37 37 36 35 31 28 29 30 30 30 33 34 33 32 32 31 30 29 28 27 28 29 30 29 28 26 23 21 19 18 17
35 38 41 44 46 48 50 52 53 54 53 52 53 54 56 59 62 65 64 58 52 47 44 44 43 43 42 41 40 40 42 42 39 35 34 35 36 35 35 35 34 34 34 35 36 36 36 36 36 37 39 40 41 40 40 41 40 37 32 28 30 31 31 32 35 37 35 34 33 32 31 30 28 28 28 30 31 30 30 28 26 24 22 21 20
37 40 43 46 49 51 53 54 56 56 55 54 55 57 59 61 64 65 63 58 52 47 45 44 42 41 39 38 38 39 40 41 42 40 37 36 37 37 36 36 35 35 36 36 37 37 38 37 36 36 36 38 41 42 42 42 41 37 32 30 32 34 33 35 36 36 35 34 34 33 32 31 29 28 29 30 31 31 31 30 28 26 24 23 22
39 41 45 49 52 54 55 56 57 57 56 56 57 59 61 63 65 64 61 56 51 48 46 44 41 39 38 37 36 37 38 39 41 43 40 37 37 38 37 36 36 36 36 37 38 38 39 39 38 37 37 37 38 40 41 40 38 35 31 32 33 34 33 36 37 35 32 33 35 34 33 32 30 29 29 30 32 32 32 32 31 28 27 25 24
41 44 48 51 53 55 56 57 58 57 56 57 58 60 62 64 65 63 58 53 50 48 46 44 41 39 38 37 36 36 36 37 39 42 43 41 39 38 38 37 37 37 36 36 38 38 39 39 37 36 37 37 36 36 38 38 36 33 31 32 33 31 32 35 38 36 34 34 35 35 34 33 31 30 30 31 32 33 33 33 32 31 29 27 25
44 47 50 52 54 55 56 57 58 58 57 58 59 61 63 65 64 60 55 52 50 47 45 43 42 40 39 37 37 37 37 38 38 40 42 43 43 41 40 39 37 37 37 35 36 37 38 37 35 33 34 35 36 35 36 38 36 33 32 33 32 30 31 35 38 38 37 36 35 35 35 33 32 31 30 31 32 33 33 33 34 33 31 29 27
49 51 52 53 54 55 56 58 59 58 58 59 61 63 64 63 61 57 53 51 49 46 44 43 42 41 40 39 38 39 38 39 40 40 41 42 43 44 44 42 39 38 37 36 35 36 36 36 34 32 31 31 32 34 35 37 37 33 32 33 32 31 31 34 38 39 38 37 35 35 35 34 33 32 31 31 33 34 34 34 35 35 34 32 30
50 50 50 52 53 54 56 58 58 58 59 61 62 63 62 60 57 54 52 50 48 46 45 44 43 42 41 40 41 41 41 41 41 41 42 43 43 44 45 44 42 40 38 37 36 35 35 36 35 32 31 30 30 31 34 37 37 34 32 32 33 32 32 33 36 39 39 38 36 35 34 34 33 33 32 32 33 34 35 35 35 36 35 34 32
47 48 49 51 53 54 56 57 58 59 60 61 61 60 59 57 55 53 52 51 49 48 47 45 44 42 41 41 41 42 43 44 43 43 43 44 45 46 47 46 43 41 39 38 36 35 35 35 35 33 32 32 31 30 33 36 36 34 32 32 33 33 33 34 35 38 39 38 37 36 34 33 34 34 34 33 33 34 35 35 36 36 36 36 35
46 47 48 51 53 55 56 57 59 59 59 59 59 57 56 54 53 53 52 52 51 50 49 47 45 43 42 42 42 43 44 45 44 44 44 45 46 47 48 47 44 41 40 38 35 34 34 34 34 33 32 32 32 31 32 36 35 33 32 33 34 33 32 34 34 35 38 39 38 37 37 36 34 35 34 34 34 35 35 35 36 37 37 36 36
46 47 49 51 53 56 58 59 59 59 59 57 56 54 54 53 53 52 52 52 52 51 50 48 46 45 44 44 45 46 46 46 45 45 46 46 48 49 49 48 44 40 38 38 36 34 32 32 32 31 30 28 30 30 32 36 35 34 34 35 36 34 33 34 34 33 37 40 41 40 40 39 36 36 36 35 35 36 36 36 36 37 36 36 35
47 49 51 53 57 59 60 60 60 59 57 54 53 53 52 52 52 52 53 53 53 52 50 49 48 47 46 47 47 48 48 47 46 47 48 48 49 51 52 49 44 39 35 35 36 35 32 31 30 29 27 26 27 29 31 36 36 35 36 36 36 35 35 37 36 34 34 37 42 43 42 41 39 38 37 37 37 38 38 37 37 36 34 31 29
52 53 54 57 62 63 61 60 59 56 54 52 51 52 51 51 51 52 53 54 53 51 50 49 49 49 49 49 49 49 48 48 49 49 50 51 52 53 52 51 46 40 34 32 33 34 32 30 29 28 26 26 27 28 31 35 36 37 37 36 36 36 37 39 39 38 36 35 39 43 44 45 43 40 40 39 39 39 39 38 37 36 32 28 27
55 56 59 63 65 63 61 59 55 52 50 50 51 51 50 51 52 53 53 53 52 51 50 50 50 50 50 50 50 50 50 50 51 52 53 54 54 54 51 49 45 41 36 32 31 32 32 30 30 28 27 27 27 29 32 34 35 35 35 35 36 36 37 41 41 39 37 36 37 40 44 47 46 44 43 42 41 41 41 40 38 36 33 30 30
56 60 63 66 65 62 59 55 50 49 50 51 51 51 50 51 52 53 52 52 51 51 51 51 51 51 51 51 51 52 52 53 54 55 56 56 55 53 50 46 43 40 36 33 31 31 31 30 30 30 28 29 30 31 33 34 34 34 33 34 35 35 35 39 42 39 37 38 39 40 42 46 48 48 46 44 44 43 42 42 41 38 35 33 33
59 62 65 65 63 59 54 50 48 50 51 52 51 51 52 52 52 51 51 52 52 52 52 52 52 52 52 53 54 55 56 57 57 58 57 56 54 52 49 45 41 38 35 32 31 31 32 31 32 32 31 31 34 35 35 36 36 36 35 34 36 36 34 36 39 39 39 40 43 44 44 44 46 49 49 47 46 46 44 44 44 42 38 34 34
60 62 63 63 60 55 51 49 50 52 53 52 51 52 53 52 52 51 51 53 54 53 53 53 53 53 54 56 57 58 59 59 58 58 56 55 53 50 47 44 40 37 35 32 30 31 32 33 33 33 33 33 36 38 38 38 37 38 37 36 36 37 37 39 39 39 40 41 43 46 47 45 44 46 48 49 48 48 47 46 46 46 43 37 34
59 60 60 58 55 52 51 51 53 53 53 52 52 53 53 52 52 52 52 54 55 54 54 54 55 56 57 59 60 60 60 59 57 56 55 53 51 49 46 42 39 36 34 33 31 30 32 34 35 36 36 35 37 40 42 41 40 40 40 39 38 39 41 44 42 40 41 42 42 45 48 48 46 45 46 48 50 50 48 48 48 48 47 42 36
55 55 55 53 52 52 53 54 54 53 52 52 53 53 53 52 52 53 55 55 56 56 57 57 58 59 61 62 62 61 59 58 57 55 54 52 49 47 44 41 38 35 34 33 32 31 31 34 36 38 39 38 39 41 44 45 45 43 43 42 41 41 43 46 47 46 45 44 43 46 48 48 47 46 46 47 49 51 51 49 49 50 50 47 41
51 52 52 52 53 53 54 54 54 53 52 52 53 53 53 53 54 55 57 57 58 59 59 59 60 62 63 64 63 61 59 58 56 54 52 50 47 45 43 40 37 35 34 34 34 33 33 34 36 39 41 41 41 42 44 47 49 48 47 46 45 44 45 47 49 51 50 46 44 47 48 47 47 48 48 46 47 51 53 51 51 51 51 50 47
54 54 54 54 55 55 54 54 53 53 53 53 54 54 54 54 55 57 59 60 61 62 61 62 63 64 65 65 63 61 60 57 55 53 51 49 48 46 44 42 39 37 36 36 36 36 35 35 37 40 43 45 45 44 45 47 50 52 52 51 50 48 48 49 51 52 53 50 47 48 48 48 48 50 50 48 46 48 52 54 53 52 51 51 51
57 57 57 57 56 55 54 54 53 53 54 55 55 54 54 55 57 59 61 63 64 64 65 65 66 67 67 65 63 61 59 57 54 53 52 51 49 48 46 44 42 41 39 39 39 39 38 38 38 40 43 47 48 48 48 48 49 52 55 56 56 54 52 52 53 52 52 51 49 48 49 49 49 50 50 49 47 47 50 54 55 54 53 52 52
59 59 59 58 57 56 55 54 54 54 56 55 55 54 55 56 59 61 64 66 67 67 68 69 69 69 67 65 64 62 59 57 55 54 53 52 51 49 47 46 44 42 41 40 40 40 40 40 41 41 43 47 50 52 51 51 51 53 55 58 60 60 57 56 56 55 53 52 50 48 48 49 51 51 50 48 47 47 48 51 53 55 55 54 53
59 59 59 58 57 56 55 54 55 55 55 55 54 55 56 58 61 64 67 68 69 70 71 71 71 70 67 65 64 62 60 59 57 56 55 53 52 50 48 46 44 43 42 41 40 40 40 41 42 43 44 47 51 54 55 55 54 55 56 59 62 64 62 59 59 59 57 55 54 51 48 48 49 51 50 49 48 48 49 50 51 53 56 56 55
59 59 58 57 56 55 55 54 54 54 54 54 55 56 58 60 63 66 69 70 71 72 73 73 72 70 67 65 64 62 61 60 59 58 56 54 52 50 49 47 46 45 43 43 42 41 40 40 41 43 46 48 51 55 58 59 58 58 59 60 63 65 66 63 61 61 62 60 57 54 52 49 48 49 50 49 49 49 51 51 51 53 55 58 57
58 58 57 56 55 54 53 53 54 54 54 55 56 59 61 63 65 68 70 72 73 74 74 74 72 69 67 66 64 63 62 61 60 59 57 55 53 51 49 48 47 46 46 45 44 43 42 42 42 43 46 49 52 55 59 62 63 62 62 63 64 66 67 67 64 62 64 64 60 56 54 52 50 51 50 49 49 50 51 52 52 53 55 57 58
57 56 55 53 52 52 53 54 54 55 55 57 59 61 63 65 67 69 71 74 75 75 75 74 71 69 67 66 65 64 63 62 61 59 57 55 53 51 50 48 48 48 48 47 47 47 46 45 44 44 46 49 53 55 59 63 66 67 66 66 67 68 68 69 68 66 65 65 63 60 58 56 55 55 55 54 53 52 52 52 52 52 54 55 57
55 53 52 51 51 52 54 55 56 57 57 59 61 63 65 67 69 71 73 74 75 75 75 73 70 68 67 66 66 65 65 64 62 60 57 55 53 51 50 49 49 49 50 50 50 50 50 49 48 48 47 49 52 55 58 62 67 70 70 70 71 72 71 70 70 69 68 67 65 63 61 60 59 59 60 60 58 57 56 56 55 53 53 54 54
52 51 51 51 52 54 55 56 58 59 59 61 63 65 67 69 71 73 74 76 76 75 74 71 69 68 67 66 66 66 65 65 62 60 57 54 52 50 50 50 51 51 52 53 53 53 53 53 52 51 50 50 51 54 57 60 65 69 73 74 74 75 75 74 72 71 71 71 70 68 66 64 63 64 64 64 63 61 60 60 60 58 57 56 56
51 50 50 51 52 54 56 58 60 61 62 64 66 67 69 71 73 74 76 76 76 74 72 71 69 68 67 66 66 66 66 64 62 59 56 54 53 52 51 52 53 54 54 54 54 54 54 54 54 53 53 52 51 53 55 58 62 66 72 76 77 77 78 78 77 75 73 73 73 73 71 69 68 67 68 68 67 66 64 64 64 63 61 60 59
50 50 50 52 54 55 57 59 61 63 64 66 68 69 71 73 74 76 77 76 74 72 71 70 69 68 67 67 67 67 66 64 61 59 57 55 54 54 54 55 56 56 55 54 54 54 54 54 54 53 53 52 52 52 54 57 60 63 68 74 78 80 81 81 81 80 78 76 75 75 75 74 72 71 71 71 71 70 69 69 67 66 65 64 62
50 51 52 54 56 57 59 61 63 64 66 68 70 71 73 74 76 77 77 75 73 71 70 70 69 68 68 68 68 68 66 64 62 59 58 57 56 56 57 58 58 57 55 53 53 54 54 53 52 52 51 51 51 51 52 55 58 61 64 68 75 80 83 84 84 84 83 81 78 77 76 76 76 75 74 74 74 73 73 72 71 70 70 68 66
51 53 55 56 58 60 61 63 64 66 68 70 71 72 73 75 76 77 76 74 72 71 70 69 69 68 68 69 69 68 67 64 62 60 58 58 58 59 60 60 59 56 54 54 54 54 53 52 50 49 49 49 49 49 50 52 55 58 62 64 69 75 81 85 86 86 86 86 84 81 79 79 78 78 78 77 77 77 76 75 74 73 72 71 70
54 56 58 59 61 62 63 65 66 68 70 71 72 73 74 76 76 75 74 72 71 70 70 69 69 69 69 70 69 68 66 64 62 60 59 59 60 61 62 61 59 57 56 56 55 54 52 50 49 47 47 47 47 48 48 49 51 54 58 62 65 69 75 81 86 88 89 89 89 87 84 82 81 81 81 81 80 80 80 79 78 77 75 74 73
58 59 60 61 63 64 65 67 68 70 71 72 73 74 75 76 75 74 72 71 70 70 69 69 69 69 70 70 69 68 66 63 62 60 60 61 62 63 63 61 59 58 58 56 54 52 50 48 47 47 46 45 45 46 47 48 49 50 53 57 61 65 70 75 81 86 90 91 92 91 90 88 86 84 83 83 83 83 83 82 81 80 79 78 76
60 61 62 63 64 66 67 69 71 72 73 73 74 74 75 74 73 72 71 70 69 69 68 68 69 70 70 70 69 67 64 63 62 61 62 64 65 65 64 62 60 60 58 55 52 50 48 47 46 46 45 44 44 44 45 46 48 50 51 52 56 60 65 70 75 80 86 90 93 94 93 93 92 90 87 86 85 85 86 86 85 83 82 82 81
61 63 64 65 67 69 70 72 73 73 73 74 74 74 74 73 72 71 70 70 69 68 68 68 69 69 69 69 67 65 64 63 63 63 64 66 67 67 65 63 62 60 57 54 52 49 47 45 44 43 43 42 42 42 43 44 46 48 50 51 53 55 59 64 69 74 80 85 90 93 95 95 95 95 93 91 89 88 88 87 87 86 84 84 84
Wind_Direction
298 298 304 311 312 313 315 316 318 320 320 321 322 322 322 321 319 318 316 315 313 310 307 305 303 301 301 301 301 302 301 301 301 302 301 299 298 298 299 300 301 303 306 309 307 300 298 297 289 287 291 293 292 286 275 263 259 259 256 254 253 255 256 256 256 256 256 257 260 264 267 268 265 265 267 266 267 272 281 289 297 306 315 322 329
293 292 300 310 312 312 315 316 318 321 323 325 325 325 324 322 320 319 317 315 313 311 308 306 304 302 302 301 301 300 299 298 298 299 300 300 299 298 299 299 300 303 306 307 304 298 296 293 287 284 286 290 291 290 286 273 262 258 257 255 253 253 254 255 255 254 254 255 257 260 264 265 263 264 264 262 263 269 278 285 294 305 314 321 328
288 284 301 311 314 315 316 319 321 324 327 328 329 328 326 324 323 321 318 315 313 311 309 306 304 303 302 301 300 299 299 298 298 298 298 299 300 298 298 298 299 303 306 305 302 297 294 288 281 280 282 287 289 288 289 283 271 260 256 255 254 253 253 254 255 254 252 252 253 255 258 259 260 262 261 258 259 265 274 282 291 303 313 321 328
283 280 304 315 320 322 321 322 325 328 330 331 331 330 329 329 327 324 320 316 313 312 309 307 305 303 301 300 300 299 299 299 299 298 297 297 297 297 296 297 299 303 303 301 299 296 291 285 278 278 282 287 291 290 288 286 280 268 258 254 254 253 252 253 253 254 252 250 250 251 253 255 258 261 259 254 255 261 270 278 286 299 311 320 328
285 282 298 314 324 325 322 323 326 330 332 333 333 333 333 332 330 327 324 320 316 313 311 308 305 303 302 301 300 300 299 300 299 298 297 296 294 294 294 295 298 299 300 300 300 295 288 282 277 278 286 292 296 296 292 287 284 277 264 255 252 253 252 252 252 253 253 251 249 250 252 254 257 259 256 251 252 258 265 272 281 294 309 320 328
290 286 291 306 321 323 321 322 326 330 333 335 335 335 335 335 333 331 328 325 320 316 314 311 308 306 304 303 302 301 300 299 298 297 296 295 294 294 294 295 296 297 299 298 295 291 287 281 276 274 277 283 289 292 293 290 286 282 272 259 252 251 251 252 252 252 253 252 250 250 252 253 256 257 253 248 249 254 261 266 274 288 304 320 330
287 287 289 300 313 318 319 321 325 330 334 336 337 338 338 336 335 334 331 328 324 320 317 315 313 311 309 306 304 303 301 299 298 298 297 296 296 296 296 295 296 292 286 280 276 277 282 280 277 271 262 260 267 275 282 285 283 282 278 267 256 251 251 251 252 252 253 253 252 252 253 253 255 254 250 246 247 251 256 260 268 282 297 315 330
280 283 286 294 305 312 317 321 324 330 333 335 337 339 340 339 337 335 333 330 327 324 320 318 316 314 311 308 306 305 303 302 302 302 302 301 300 298 296 294 291 282 274 273 272 271 274 274 273 272 262 256 260 264 268 274 277 280 280 275 264 254 251 251 252 252 252 253 253 252 253 253 253 251 248 246 245 247 252 255 261 273 288 305 323
277 279 283 291 301 309 315 319 323 327 331 333 335 337 339 340 339 337 335 332 329 326 322 319 316 314 312 310 309 307 306 307 307 307 306 305 303 300 296 292 286 278 271 270 272 272 271 269 267 267 260 255 258 257 256 261 267 274 278 276 270 259 252 251 252 253 252 252 253 252 253 253 252 249 245 245 244 244 247 250 255 265 279 294 310
273 276 282 290 298 306 312 316 319 323 326 329 331 333 334 338 339 338 335 332 329 326 323 319 315 314 313 312 311 310 309 309 310 309 308 307 304 300 296 290 285 281 274 267 265 267 268 265 263 262 257 253 253 251 249 252 257 265 271 272 272 265 255 251 251 253 253 252 252 252 253 253 252 247 244 244 243 241 244 247 250 258 270 285 298
268 273 283 291 297 303 309 314 317 319 322 325 327 328 329 333 337 338 335 332 328 325 322 319 317 315 315 314 313 312 311 311 310 309 308 306 304 300 296 290 284 282 279 272 265 262 262 262 258 255 253 251 251 251 250 252 254 259 262 264 267 265 258 253 251 252 253 252 252 251 252 253 252 247 243 244 242 239 241 244 247 254 265 276 290
264 274 283 289 296 302 308 313 315 317 320 323 325 326 327 329 334 336 335 332 328 324 322 320 318 316 316 315 314 312 311 311 311 309 308 306 303 300 296 291 285 280 278 276 271 266 263 260 256 251 248 247 250 252 251 251 254 257 258 257 258 257 255 251 248 250 251 251 251 250 251 252 251 247 242 243 242 237 238 242 245 250 258 269 282
264 275 282 287 295 301 307 311 314 317 319 321 323 325 327 328 331 334 334 331 327 324 322 320 318 317 315 314 313 312 311 311 311 310 309 306 303 301 297 292 287 281 277 274 273 272 268 263 258 254 249 248 251 251 249 250 252 256 259 258 254 249 247 245 243 247 249 250 250 248 249 250 250 245 241 241 241 237 236 239 244 248 254 263 274
266 274 280 285 292 299 305 308 311 315 317 319 321 323 325 327 330 332 331 329 326 323 322 320 319 317 316 314 313 312 310 310 311 310 309 307 304 301 298 295 291 285 279 275 273 272 269 264 259 256 252 250 250 250 249 249 251 254 256 258 256 247 239 239 242 243 246 248 248 247 247 248 248 243 239 240 240 238 236 238 243 247 252 258 267
266 273 280 285 290 296 302 306 308 313 315 316 318 320 322 325 328 329 329 327 325 322 320 320 319 318 316 314 314 313 311 310 310 310 310 309 307 304 300 296 292 288 284 279 276 275 271 265 260 257 254 251 249 248 248 248 249 252 255 258 260 252 237 235 241 241 242 246 246 246 246 247 246 242 238 239 240 239 237 238 242 247 252 257 263
269 274 281 285 289 295 301 304 307 311 313 314 317 318 321 323 326 327 326 325 323 321 319 320 319 318 316 314 313 313 314 314 314 314 314 313 312 308 305 300 293 288 284 282 279 277 275 271 266 261 258 255 252 249 247 247 249 252 256 259 262 259 243 234 238 238 238 242 245 246 245 245 245 241 238 237 239 241 239 239 242 247 252 258 263
272 276 281 285 289 294 299 302 306 309 311 313 315 318 320 322 324 325 324 323 322 320 319 320 320 317 315 313 313 314 315 317 317 317 317 316 314 311 308 304 299 292 285 282 280 277 274 273 271 268 265 262 256 252 249 249 251 252 255 257 261 263 250 236 236 238 239 242 244 245 244 244 244 241 238 237 239 242 241 241 243 247 252 257 263
269 272 277 282 287 292 296 299 303 307 309 312 315 317 320 322 323 323 322 322 321 320 320 320 319 317 314 312 313 314 315 316 316 316 317 316 314 312 308 305 301 296 289 284 280 278 275 272 272 270 269 268 262 256 252 250 251 251 252 254 259 263 252 238 234 234 238 243 243 243 243 243 242 241 239 237 238 242 243 243 244 248 252 256 261
262 267 273 280 285 290 293 297 302 306 308 311 314 317 319 320 321 321 321 320 320 320 320 320 318 316 314 313 313 313 313 313 314 315 316 316 315 314 311 306 301 296 292 286 281 279 277 275 274 272 269 268 266 260 252 249 250 250 250 253 259 260 250 240 236 231 232 239 241 242 241 241 241 241 240 238 238 241 244 245 246 249 253 256 260
262 267 274 279 283 288 292 297 302 305 307 311 314 316 318 319 320 320 320 320 320 320 320 319 318 316 314 314 313 312 312 311 311 312 314 317 317 316 313 309 302 295 292 289 283 280 279 277 275 273 269 266 265 261 252 245 247 249 249 253 259 259 248 241 240 237 234 236 240 241 240 240 240 241 241 239 239 241 244 245 247 250 252 256 260
265 268 274 279 283 289 294 299 302 304 307 310 313 315 316 318 318 319 319 320 320 319 319 318 317 316 315 314 313 312 311 310 309 309 311 313 315 316 315 312 306 297 290 288 286 281 280 279 275 272 271 267 262 258 249 241 240 244 247 250 255 257 249 240 241 243 241 238 240 241 241 240 240 240 241 240 240 241 244 246 248 250 252 255 258
267 271 277 283 287 292 296 299 302 304 307 310 312 314 315 316 317 318 319 320 319 318 318 317 316 315 314 313 312 312 311 310 309 309 309 311 312 315 316 314 309 300 291 286 286 284 281 281 278 272 268 266 263 258 248 238 235 237 241 244 249 252 246 239 239 241 242 241 239 241 242 242 242 241 241 242 241 242 243 246 248 250 252 254 256
271 277 282 286 289 293 296 300 303 305 308 310 311 313 314 315 317 318 319 319 319 318 317 316 315 313 312 311 311 311 311 311 311 310 310 312 313 314 316 315 310 302 292 284 282 284 282 281 280 275 267 261 260 257 245 234 230 231 236 241 246 248 242 238 236 237 242 244 241 241 243 243 243 242 242 243 243 243 244 246 248 250 252 254 255
276 279 282 285 289 294 299 303 306 307 308 309 310 311 313 315 317 318 319 320 319 319 317 316 314 312 310 309 309 309 310 310 310 310 311 312 312 314 315 314 310 302 293 284 277 278 280 280 280 277 271 259 253 251 239 228 226 227 231 240 246 248 241 235 234 236 241 245 245 244 243 243 243 242 242 244 245 246 247 247 248 249 251 252 254
275 276 279 283 290 296 302 306 308 308 307 307 308 310 312 315 317 319 320 320 320 319 317 315 313 312 310 309 308 309 309 310 310 310 310 311 312 313 313 313 310 302 293 285 277 274 275 277 277 274 270 258 247 244 234 224 224 225 228 236 243 247 241 231 229 233 238 244 248 249 246 244 244 244 242 243 245 248 249 250 250 250 251 253 256
272 273 276 283 292 299 302 305 307 306 305 306 308 310 313 316 318 319 320 321 320 319 317 315 314 312 311 310 309 309 309 309 310 310 311 311 312 313 313 312 309 302 292 283 278 274 272 273 273 269 263 254 244 239 231 223 222 223 227 232 238 242 240 232 227 229 234 240 245 249 251 248 246 246 245 244 244 246 249 251 253 253 253 254 257
273 273 276 284 294 300 302 305 304 303 303 305 308 311 314 316 318 319 320 320 319 318 317 315 314 312 311 310 310 310 310 310 310 311 311 311 311 312 312 311 309 303 292 281 274 272 270 268 268 265 256 249 242 236 230 224 221 223 227 232 236 238 236 231 229 231 235 238 241 245 249 251 249 247 245 245 244 244 246 249 252 254 254 253 254
275 275 279 287 295 299 302 303 302 301 303 305 309 312 314 316 318 319 320 319 319 317 316 314 313 312 311 311 311 310 311 311 311 311 311 311 311 311 311 309 307 303 294 283 273 267 265 263 262 260 253 244 237 231 228 226 224 226 230 234 238 238 233 228 227 230 236 240 242 243 245 247 249 247 244 244 245 245 245 246 247 250 252 253 254
276 277 282 289 295 299 300 300 300 301 304 307 311 313 315 316 318 319 319 318 318 316 315 314 312 312 312 312 313 313 312 312 312 311 310 310 309 309 309 307 304 301 293 284 277 268 263 259 256 255 250 241 234 228 227 228 228 228 232 235 237 237 233 226 225 228 233 239 244 246 246 245 245 246 245 245 245 246 246 245 244 244 247 251 255
277 279 284 289 294 297 298 298 300 303 306 309 312 313 315 316 316 317 317 317 317 316 314 313 313 313 314 314 315 314 313 313 312 311 310 309 308 307 307 305 302 298 291 283 277 270 264 258 254 252 248 240 233 228 226 228 229 230 231 234 234 233 230 226 225 229 233 238 242 245 247 246 244 244 244 244 244 246 246 245 243 242 242 246 253
280 283 286 290 292 294 295 297 300 304 307 310 312 314 315 315 314 314 315 317 317 316 314 314 314 315 316 316 315 314 313 313 311 310 309 308 308 306 305 304 300 296 289 281 275 270 263 257 253 250 248 241 234 230 228 227 228 230 231 232 232 230 227 225 227 232 235 237 240 242 244 245 245 244 243 242 242 243 244 244 244 243 242 243 247
286 287 288 289 290 292 294 297 301 304 308 311 313 314 314 313 312 312 314 317 318 316 315 316 316 316 317 316 316 315 314 313 311 310 309 308 307 306 305 303 299 295 288 280 275 269 263 257 251 247 247 244 237 231 229 228 228 229 229 230 231 230 229 227 228 233 237 237 238 240 240 242 244 245 245 243 241 241 242 242 243 244 244 242 243
287 287 287 288 289 292 295 299 302 305 308 311 312 313 313 311 311 312 314 316 317 317 316 316 316 316 317 317 317 316 314 313 311 310 309 308 307 306 305 303 300 295 288 281 277 271 264 256 251 247 244 244 241 235 231 230 229 229 228 229 230 232 232 231 228 230 235 236 236 238 239 241 244 245 247 246 242 241 241 242 242 244 245 243 240
286 286 287 288 291 294 297 300 303 305 308 310 312 312 312 312 313 314 315 316 317 316 316 316 316 317 317 318 317 315 314 313 312 311 310 310 309 308 306 304 301 296 290 284 280 275 268 258 251 246 243 242 242 239 234 231 230 230 229 228 230 232 234 233 230 230 232 235 236 237 238 241 244 246 248 249 245 242 241 242 242 242 244 243 239
286 287 288 291 293 296 299 301 304 306 308 309 310 311 312 313 314 315 315 316 317 317 316 316 316 317 318 318 317 316 315 314 313 313 312 311 310 309 307 304 301 297 292 287 283 279 274 265 254 247 243 241 240 240 238 235 232 230 230 229 229 232 232 232 231 231 232 234 236 237 238 241 243 245 247 248 247 243 240 241 242 242 242 243 241
286 288 289 292 294 297 299 302 304 305 307 308 309 311 313 314 315 315 316 317 317 317 317 317 317 318 319 318 317 317 316 315 315 314 313 312 311 309 307 305 301 297 293 289 285 282 278 271 262 252 245 241 239 239 238 237 234 232 231 230 230 232 232 231 231 231 232 233 235 238 239 240 242 244 245 246 247 245 241 239 240 241 242 243 243
286 287 290 292 295 297 299 301 303 305 306 308 309 312 314 315 315 316 316 317 317 317 317 318 318 319 319 319 318 318 317 316 316 315 314 313 311 309 307 305 302 299 295 291 287 283 279 274 267 259 250 243 240 238 238 237 235 233 232 231 231 232 233 232 231 231 231 232 235 238 241 241 242 243 243 243 245 245 244 241 240 241 241 241 242
286 288 290 293 295 297 299 301 302 304 305 307 310 313 314 315 315 316 317 317 317 317 318 318 319 319 319 319 319 318 318 317 316 316 315 314 312 310 308 306 304 301 298 294 290 285 280 274 269 262 255 247 242 239 237 236 235 234 233 232 231 232 233 234 232 231 230 231 234 238 240 241 242 243 243 242 241 242 243 243 242 242 240 239 239
287 289 291 293 295 297 298 300 301 303 305 308 311 313 314 314 315 316 316 317 317 317 317 318 318 319 319 319 319 318 318 317 317 316 316 315 313 312 310 308 306 304 301 298 294 289 283 276 270 264 258 252 245 240 238 236 235 234 232 232 233 233 233 234 234 232 230 230 234 238 240 240 239 239 240 241 242 241 242 242 244 244 242 239 238
287 289 291 293 294 296 298 299 301 304 307 310 312 313 313 314 314 315 315 316 316 316 317 317 318 318 318 319 318 318 318 317 317 317 317 315 314 313 311 309 307 306 303 300 297 293 287 281 273 266 260 254 249 244 239 236 235 235 233 232 233 234 234 234 234 232 231 231 233 236 238 238 237 235 235 237 239 241 242 242 243 244 243 241 240
287 289 290 292 294 296 298 300 302 305 308 310 311 312 312 313 313 313 314 315 315 315 316 317 317 317 318 318 318 318 318 318 318 317 317 315 314 312 310 309 307 305 303 301 298 294 290 285 278 271 263 257 252 247 242 238 236 235 234 232 232 233 235 236 235 233 231 231 233 234 234 234 235 235 235 235 237 239 241 242 243 244 244 243 242
287 289 291 293 295 297 299 301 303 306 308 308 309 310 311 311 312 312 313 313 314 315 315 316 316 317 318 318 318 318 317 317 318 317 316 314 313 311 310 308 306 305 302 300 297 294 290 287 282 277 270 262 256 251 246 242 238 235 234 234 233 233 234 236 237 235 233 232 233 233 232 231 232 233 235 236 236 237 239 240 241 242 243 244 244
287 289 292 294 296 298 300 302 303 305 306 307 307 308 309 310 310 311 312 313 314 315 315 315 316 317 318 318 317 317 317 317 317 316 315 314 312 310 309 308 306 304 301 298 296 293 290 287 283 280 275 269 262 256 251 246 242 238 236 234 234 234 234 235 236 237 236 235 234 233 232 230 230 232 234 236 237 236 237 238 239 239 240 240 241
287 290 292 294 296 298 299 301 303 304 305 305 306 306 307 308 310 311 312 313 314 314 314 314 316 317 317 316 316 316 316 317 317 316 315 313 312 310 309 307 306 304 302 300 297 295 292 289 285 282 277 273 267 261 256 251 246 242 238 236 235 235 235 235 235 237 237 237 236 235 234 232 231 232 234 237 237 236 235 237 239 240 240 240 239
287 290 292 293 295 296 298 299 301 302 303 304 304 305 307 308 310 311 313 313 313 314 314 315 316 316 316 316 315 316 316 317 316 315 314 312 311 310 310 309 308 307 304 302 300 297 294 292 289 285 281 276 271 265 260 255 251 246 242 239 237 236 236 235 236 236 237 238 238 237 236 235 233 232 234 237 238 237 236 236 237 239 241 242 242
287 289 290 292 293 294 296 298 299 300 301 302 303 305 307 309 311 312 312 313 313 313 314 314 315 315 315 315 315 316 316 317 316 315 313 312 311 311 311 311 310 308 305 303 301 299 296 293 290 287 284 280 275 269 263 258 254 250 246 242 239 237 237 236 236 236 237 238 238 238 238 237 236 235 235 236 238 239 239 238 238 239 240 242 243
286 288 289 290 291 293 294 296 296 298 299 301 304 306 308 309 311 311 312 312 312 312 313 314 315 315 315 314 315 316 316 316 315 313 312 312 312 312 312 312 311 309 307 306 304 301 298 295 291 288 284 281 277 273 268 262 257 253 250 246 242 240 238 238 237 237 237 238 238 239 238 238 238 238 237 237 237 239 240 240 240 240 241 242 242
285 287 288 289 290 291 292 293 295 297 299 302 304 307 308 309 310 310 311 311 311 312 313 314 314 314 314 314 315 315 315 314 313 313 313 313 313 314 314 313 312 311 310 308 306 303 300 296 293 289 284 281 277 274 270 266 261 256 252 249 246 243 240 239 238 238 238 238 238 239 239 239 239 239 239 239 238 239 239 240 241 240 241 241 242
285 286 287 288 288 289 291 292 295 298 300 303 305 307 308 309 309 309 309 310 311 312 313 313 313 313 314 314 315 314 314 313 313 314 314 315 315 315 315 315 314 312 311 309 306 303 301 298 294 291 286 282 277 274 270 267 264 261 256 252 249 246 243 241 239 239 239 239 239 239 239 239 240 239 240 240 240 240 240 241 241 241 241 240 240
284 284 285 286 287 289 291 294 296 299 301 303 305 306 307 308 308 308 309 310 311 312 312 313 313 313 314 314 314 314 314 314 315 316 316 317 317 317 316 316 315 314 312 310 308 305 302 299 296 293 289 285 280 275 271 267 264 262 259 256 252 249 246 244 242 240 240 240 240 240 240 240 240 240 240 240 241 241 241 242 242 242 242 242 242
281 282 284 285 288 290 293 295 297 299 301 303 304 306 306 307 307 308 309 310 311 311 312 312 312 313 313 313 313 314 314 315 317 317 318 318 318 318 318 317 317 316 314 312 310 308 305 302 298 294 290 286 282 278 273 269 265 262 259 257 255 252 249 246 244 243 241 240 240 240 241 241 241 241 241 241 241 241 242 242 242 242 242 242 243